date,time,SUV Intensity [MED/Hr],UV Index,Daily total [MED],Since Last [MED]
01/10/2023,00:01:52,0.000,0.0,0.0,0.0
01/10/2023,00:02:52,0.001,0.0,0.0,0.0
01/10/2023,00:03:52,0.001,0.0,0.0,0.0
01/10/2023,00:04:51,0.001,0.0,0.0,0.0
01/10/2023,00:05:52,0.000,0.0,0.0,0.0
01/10/2023,00:06:52,-0.001,0.0,0.0,0.0
01/10/2023,00:07:53,0.000,0.0,0.0,0.0
01/10/2023,00:08:51,-0.000,0.0,0.0,0.0
01/10/2023,00:09:52,-0.000,0.0,0.0,0.0
01/10/2023,00:10:53,-0.001,0.0,0.0,0.0
01/10/2023,00:11:52,-0.000,0.0,0.0,0.0
01/10/2023,00:12:52,-0.000,0.0,0.0,0.0
01/10/2023,00:13:52,-0.000,0.0,0.0,0.0
01/10/2023,00:14:52,-0.001,0.0,0.0,0.0
01/10/2023,00:15:52,-0.001,0.0,0.0,0.0
01/10/2023,00:16:52,0.001,0.0,0.0,0.0
01/10/2023,00:17:52,0.000,0.0,0.0,0.0
01/10/2023,00:18:52,0.000,0.0,0.0,0.0
01/10/2023,00:19:52,0.000,0.0,0.0,0.0
01/10/2023,00:20:52,-0.000,0.0,0.0,0.0
01/10/2023,00:21:52,0.001,0.0,0.0,0.0
01/10/2023,00:22:52,0.000,0.0,0.0,0.0
01/10/2023,00:23:52,0.000,0.0,0.0,0.0
01/10/2023,00:24:52,-0.000,0.0,0.0,0.0
01/10/2023,00:25:51,-0.001,0.0,0.0,0.0
01/10/2023,00:26:52,-0.000,0.0,0.0,0.0
01/10/2023,00:27:52,0.000,0.0,0.0,0.0
01/10/2023,00:28:51,0.000,0.0,0.0,0.0
01/10/2023,00:29:52,-0.001,0.0,0.0,0.0
01/10/2023,00:30:52,0.000,0.0,0.0,0.0
01/10/2023,00:31:51,0.000,0.0,0.0,0.0
01/10/2023,00:32:52,-0.001,0.0,0.0,0.0
01/10/2023,00:33:52,0.000,0.0,0.0,0.0
01/10/2023,00:34:52,0.000,0.0,0.0,0.0
01/10/2023,00:35:52,0.000,0.0,0.0,0.0
01/10/2023,00:36:52,0.000,0.0,0.0,0.0
01/10/2023,00:37:51,0.000,0.0,0.0,0.0
01/10/2023,00:39:14,0.000,0.0,0.0,0.0
01/10/2023,00:39:52,0.000,0.0,0.0,0.0
01/10/2023,00:40:52,0.000,0.0,0.0,0.0
01/10/2023,00:41:52,0.001,0.0,0.0,0.0
01/10/2023,00:42:52,-0.000,0.0,0.0,0.0
01/10/2023,00:43:52,0.001,0.0,0.0,0.0
01/10/2023,00:44:51,0.000,0.0,0.0,0.0
01/10/2023,00:45:52,-0.001,0.0,0.0,0.0
01/10/2023,00:46:52,0.001,0.0,0.0,0.0
01/10/2023,00:47:52,0.000,0.0,0.0,0.0
01/10/2023,00:48:52,0.000,0.0,0.0,0.0
01/10/2023,00:49:52,0.000,0.0,0.0,0.0
01/10/2023,00:50:52,0.000,0.0,0.0,0.0
01/10/2023,00:51:52,0.000,0.0,0.0,0.0
01/10/2023,00:52:52,0.000,0.0,0.0,0.0
01/10/2023,00:53:52,-0.000,0.0,0.0,0.0
01/10/2023,00:54:52,0.000,0.0,0.0,0.0
01/10/2023,00:55:52,0.001,0.0,0.0,0.0
01/10/2023,00:56:52,-0.000,0.0,0.0,0.0
01/10/2023,00:57:52,0.000,0.0,0.0,0.0
01/10/2023,00:58:52,0.000,0.0,0.0,0.0
01/10/2023,00:59:52,0.000,0.0,0.0,0.0
01/10/2023,01:00:52,0.000,0.0,0.0,0.0
01/10/2023,01:01:52,0.000,0.0,0.0,0.0
01/10/2023,01:02:52,0.001,0.0,0.0,0.0
01/10/2023,01:03:52,0.001,0.0,0.0,0.0
01/10/2023,01:04:52,0.001,0.0,0.0,0.0
01/10/2023,01:05:52,-0.001,0.0,0.0,0.0
01/10/2023,01:06:52,-0.000,0.0,0.0,0.0
01/10/2023,01:07:51,0.000,0.0,0.0,0.0
01/10/2023,01:08:52,0.000,0.0,0.0,0.0
01/10/2023,01:09:52,0.000,0.0,0.0,0.0
01/10/2023,01:10:52,0.000,0.0,0.0,0.0
01/10/2023,01:11:51,-0.000,0.0,0.0,0.0
01/10/2023,01:12:52,0.001,0.0,0.0,0.0
01/10/2023,01:13:52,0.000,0.0,0.0,0.0
01/10/2023,01:14:52,-0.001,0.0,0.0,0.0
01/10/2023,01:15:52,0.001,0.0,0.0,0.0
01/10/2023,01:16:52,0.000,0.0,0.0,0.0
01/10/2023,01:17:52,0.000,0.0,0.0,0.0
01/10/2023,01:18:51,-0.000,0.0,0.0,0.0
01/10/2023,01:19:52,0.000,0.0,0.0,0.0
01/10/2023,01:20:52,0.001,0.0,0.0,0.0
01/10/2023,01:21:52,-0.001,0.0,0.0,0.0
01/10/2023,01:22:51,-0.001,0.0,0.0,0.0
01/10/2023,01:23:52,0.000,0.0,0.0,0.0
01/10/2023,01:24:52,0.001,0.0,0.0,0.0
01/10/2023,01:25:52,0.000,0.0,0.0,0.0
01/10/2023,01:26:52,0.000,0.0,0.0,0.0
01/10/2023,01:27:52,-0.000,0.0,0.0,0.0
01/10/2023,01:28:52,0.000,0.0,0.0,0.0
01/10/2023,01:29:52,-0.000,0.0,0.0,0.0
01/10/2023,01:30:52,-0.000,0.0,0.0,0.0
01/10/2023,01:31:52,0.000,0.0,0.0,0.0
01/10/2023,01:32:52,0.000,0.0,0.0,0.0
01/10/2023,01:33:52,0.001,0.0,0.0,0.0
01/10/2023,01:34:52,0.000,0.0,0.0,0.0
01/10/2023,01:35:52,-0.001,0.0,0.0,0.0
01/10/2023,01:36:52,-0.000,0.0,0.0,0.0
01/10/2023,01:37:52,0.000,0.0,0.0,0.0
01/10/2023,01:38:52,0.000,0.0,0.0,0.0
01/10/2023,01:39:52,-0.000,0.0,0.0,0.0
01/10/2023,01:40:52,-0.001,0.0,0.0,0.0
01/10/2023,01:41:52,0.000,0.0,0.0,0.0
01/10/2023,01:42:52,0.000,0.0,0.0,0.0
01/10/2023,01:43:52,-0.000,0.0,0.0,0.0
01/10/2023,01:44:52,-0.001,0.0,0.0,0.0
01/10/2023,01:45:51,-0.001,0.0,0.0,0.0
01/10/2023,01:46:52,-0.000,0.0,0.0,0.0
01/10/2023,01:47:52,0.001,0.0,0.0,0.0
01/10/2023,01:48:52,-0.000,0.0,0.0,0.0
01/10/2023,01:49:52,-0.000,0.0,0.0,0.0
01/10/2023,01:50:53,0.000,0.0,0.0,0.0
01/10/2023,01:51:53,-0.000,0.0,0.0,0.0
01/10/2023,01:52:52,-0.001,0.0,0.0,0.0
01/10/2023,01:53:52,0.000,0.0,0.0,0.0
01/10/2023,01:54:52,-0.001,0.0,0.0,0.0
01/10/2023,01:55:52,-0.000,0.0,0.0,0.0
01/10/2023,01:56:52,-0.001,0.0,0.0,0.0
01/10/2023,01:57:52,-0.000,0.0,0.0,0.0
01/10/2023,01:58:52,-0.000,0.0,0.0,0.0
01/10/2023,01:59:52,-0.000,0.0,0.0,0.0
01/10/2023,02:00:52,-0.000,0.0,0.0,0.0
01/10/2023,02:01:52,-0.000,0.0,0.0,0.0
01/10/2023,02:02:52,-0.000,0.0,0.0,0.0
01/10/2023,02:03:52,-0.001,0.0,0.0,0.0
01/10/2023,02:04:52,-0.000,0.0,0.0,0.0
01/10/2023,02:05:52,0.000,0.0,0.0,0.0
01/10/2023,02:06:52,-0.000,0.0,0.0,0.0
01/10/2023,02:07:52,-0.000,0.0,0.0,0.0
01/10/2023,02:08:52,-0.000,0.0,0.0,0.0
01/10/2023,02:09:52,0.001,0.0,0.0,0.0
01/10/2023,02:10:52,-0.001,0.0,0.0,0.0
01/10/2023,02:11:52,-0.000,0.0,0.0,0.0
01/10/2023,02:12:52,0.000,0.0,0.0,0.0
01/10/2023,02:13:52,-0.001,0.0,0.0,0.0
01/10/2023,02:14:52,-0.001,0.0,0.0,0.0
01/10/2023,02:15:52,-0.000,0.0,0.0,0.0
01/10/2023,02:16:52,-0.000,0.0,0.0,0.0
01/10/2023,02:17:52,-0.000,0.0,0.0,0.0
01/10/2023,02:18:52,0.000,0.0,0.0,0.0
01/10/2023,02:19:52,0.001,0.0,0.0,0.0
01/10/2023,02:20:52,-0.000,0.0,0.0,0.0
01/10/2023,02:21:52,-0.000,0.0,0.0,0.0
01/10/2023,02:22:52,0.000,0.0,0.0,0.0
01/10/2023,02:23:52,0.001,0.0,0.0,0.0
01/10/2023,02:24:52,-0.000,0.0,0.0,0.0
01/10/2023,02:25:52,-0.001,0.0,0.0,0.0
01/10/2023,02:26:52,0.000,0.0,0.0,0.0
01/10/2023,02:27:52,-0.000,0.0,0.0,0.0
01/10/2023,02:28:51,0.000,0.0,0.0,0.0
01/10/2023,02:29:52,0.001,0.0,0.0,0.0
01/10/2023,02:30:53,0.001,0.0,0.0,0.0
01/10/2023,02:31:52,-0.001,0.0,0.0,0.0
01/10/2023,02:32:52,0.001,0.0,0.0,0.0
01/10/2023,02:33:52,-0.000,0.0,0.0,0.0
01/10/2023,02:34:52,0.000,0.0,0.0,0.0
01/10/2023,02:35:52,-0.001,0.0,0.0,0.0
01/10/2023,02:36:52,-0.000,0.0,0.0,0.0
01/10/2023,02:37:52,-0.001,0.0,0.0,0.0
01/10/2023,02:38:52,0.000,0.0,0.0,0.0
01/10/2023,02:39:52,0.000,0.0,0.0,0.0
01/10/2023,02:40:52,-0.000,0.0,0.0,0.0
01/10/2023,02:41:52,-0.000,0.0,0.0,0.0
01/10/2023,02:42:52,-0.000,0.0,0.0,0.0
01/10/2023,02:43:52,0.000,0.0,0.0,0.0
01/10/2023,02:44:52,0.000,0.0,0.0,0.0
01/10/2023,02:45:52,-0.001,0.0,0.0,0.0
01/10/2023,02:46:52,0.001,0.0,0.0,0.0
01/10/2023,02:47:52,0.000,0.0,0.0,0.0
01/10/2023,02:48:52,0.000,0.0,0.0,0.0
01/10/2023,02:49:52,0.000,0.0,0.0,0.0
01/10/2023,02:50:52,-0.000,0.0,0.0,0.0
01/10/2023,02:51:52,-0.002,0.0,0.0,0.0
01/10/2023,02:52:52,-0.000,0.0,0.0,0.0
01/10/2023,02:53:52,0.001,0.0,0.0,0.0
01/10/2023,02:54:52,0.000,0.0,0.0,0.0
01/10/2023,02:55:52,-0.000,0.0,0.0,0.0
01/10/2023,02:56:52,-0.000,0.0,0.0,0.0
01/10/2023,02:57:52,-0.001,0.0,0.0,0.0
01/10/2023,02:58:52,0.001,0.0,0.0,0.0
01/10/2023,02:59:52,0.000,0.0,0.0,0.0
01/10/2023,03:00:52,-0.000,0.0,0.0,0.0
01/10/2023,03:01:52,0.001,0.0,0.0,0.0
01/10/2023,03:02:52,0.001,0.0,0.0,0.0
01/10/2023,03:03:52,-0.000,0.0,0.0,0.0
01/10/2023,03:04:52,0.000,0.0,0.0,0.0
01/10/2023,03:05:53,-0.000,0.0,0.0,0.0
01/10/2023,03:06:52,0.000,0.0,0.0,0.0
01/10/2023,03:07:52,-0.000,0.0,0.0,0.0
01/10/2023,03:08:52,-0.001,0.0,0.0,0.0
01/10/2023,03:09:53,-0.000,0.0,0.0,0.0
01/10/2023,03:10:52,-0.000,0.0,0.0,0.0
01/10/2023,03:11:52,0.000,0.0,0.0,0.0
01/10/2023,03:12:52,0.000,0.0,0.0,0.0
01/10/2023,03:13:52,-0.000,0.0,0.0,0.0
01/10/2023,03:14:52,-0.000,0.0,0.0,0.0
01/10/2023,03:15:52,-0.000,0.0,0.0,0.0
01/10/2023,03:16:52,0.001,0.0,0.0,0.0
01/10/2023,03:17:52,-0.000,0.0,0.0,0.0
01/10/2023,03:18:52,0.001,0.0,0.0,0.0
01/10/2023,03:19:52,-0.000,0.0,0.0,0.0
01/10/2023,03:20:52,-0.000,0.0,0.0,0.0
01/10/2023,03:21:52,-0.000,0.0,0.0,0.0
01/10/2023,03:22:52,-0.001,0.0,0.0,0.0
01/10/2023,03:23:52,0.000,0.0,0.0,0.0
01/10/2023,03:24:52,-0.000,0.0,0.0,0.0
01/10/2023,03:25:53,-0.000,0.0,0.0,0.0
01/10/2023,03:26:52,-0.000,0.0,0.0,0.0
01/10/2023,03:27:52,-0.000,0.0,0.0,0.0
01/10/2023,03:28:53,-0.001,0.0,0.0,0.0
01/10/2023,03:29:52,-0.001,0.0,0.0,0.0
01/10/2023,03:30:53,-0.000,0.0,0.0,0.0
01/10/2023,03:31:54,0.000,0.0,0.0,0.0
01/10/2023,03:32:52,-0.000,0.0,0.0,0.0
01/10/2023,03:33:53,-0.000,0.0,0.0,0.0
01/10/2023,03:34:52,-0.000,0.0,0.0,0.0
01/10/2023,03:35:52,0.000,0.0,0.0,0.0
01/10/2023,03:36:52,-0.000,0.0,0.0,0.0
01/10/2023,03:37:52,-0.001,0.0,0.0,0.0
01/10/2023,03:38:52,0.001,0.0,0.0,0.0
01/10/2023,03:39:52,0.000,0.0,0.0,0.0
01/10/2023,03:40:52,0.000,0.0,0.0,0.0
01/10/2023,03:41:52,0.000,0.0,0.0,0.0
01/10/2023,03:42:53,-0.000,0.0,0.0,0.0
01/10/2023,03:43:52,0.000,0.0,0.0,0.0
01/10/2023,03:44:52,-0.001,0.0,0.0,0.0
01/10/2023,03:45:52,0.000,0.0,0.0,0.0
01/10/2023,03:46:53,-0.000,0.0,0.0,0.0
01/10/2023,03:47:52,-0.000,0.0,0.0,0.0
01/10/2023,03:48:52,0.000,0.0,0.0,0.0
01/10/2023,03:49:52,0.001,0.0,0.0,0.0
01/10/2023,03:50:52,0.000,0.0,0.0,0.0
01/10/2023,03:51:52,0.000,0.0,0.0,0.0
01/10/2023,03:52:52,-0.000,0.0,0.0,0.0
01/10/2023,03:53:52,-0.001,0.0,0.0,0.0
01/10/2023,03:54:52,0.000,0.0,0.0,0.0
01/10/2023,03:55:52,-0.001,0.0,0.0,0.0
01/10/2023,03:56:52,0.000,0.0,0.0,0.0
01/10/2023,03:57:52,0.000,0.0,0.0,0.0
01/10/2023,03:58:52,0.000,0.0,0.0,0.0
01/10/2023,03:59:53,-0.000,0.0,0.0,0.0
01/10/2023,04:00:52,0.000,0.0,0.0,0.0
01/10/2023,04:01:52,0.000,0.0,0.0,0.0
01/10/2023,04:02:52,0.000,0.0,0.0,0.0
01/10/2023,04:03:53,-0.000,0.0,0.0,0.0
01/10/2023,04:04:52,0.000,0.0,0.0,0.0
01/10/2023,04:05:52,-0.000,0.0,0.0,0.0
01/10/2023,04:06:52,0.000,0.0,0.0,0.0
01/10/2023,04:07:52,-0.000,0.0,0.0,0.0
01/10/2023,04:08:52,0.001,0.0,0.0,0.0
01/10/2023,04:09:52,0.000,0.0,0.0,0.0
01/10/2023,04:10:53,-0.000,0.0,0.0,0.0
01/10/2023,04:11:52,0.001,0.0,0.0,0.0
01/10/2023,04:12:53,-0.000,0.0,0.0,0.0
01/10/2023,04:13:52,0.000,0.0,0.0,0.0
01/10/2023,04:14:52,0.001,0.0,0.0,0.0
01/10/2023,04:15:52,0.000,0.0,0.0,0.0
01/10/2023,04:16:52,-0.000,0.0,0.0,0.0
01/10/2023,04:17:52,0.000,0.0,0.0,0.0
01/10/2023,04:18:53,0.000,0.0,0.0,0.0
01/10/2023,04:19:52,0.000,0.0,0.0,0.0
01/10/2023,04:20:52,-0.001,0.0,0.0,0.0
01/10/2023,04:21:52,0.000,0.0,0.0,0.0
01/10/2023,04:22:52,0.001,0.0,0.0,0.0
01/10/2023,04:23:52,0.000,0.0,0.0,0.0
01/10/2023,04:24:52,0.000,0.0,0.0,0.0
01/10/2023,04:25:52,-0.000,0.0,0.0,0.0
01/10/2023,04:26:52,0.000,0.0,0.0,0.0
01/10/2023,04:27:53,0.000,0.0,0.0,0.0
01/10/2023,04:28:52,-0.000,0.0,0.0,0.0
01/10/2023,04:29:52,0.001,0.0,0.0,0.0
01/10/2023,04:30:52,0.001,0.0,0.0,0.0
01/10/2023,04:31:52,0.000,0.0,0.0,0.0
01/10/2023,04:32:52,0.000,0.0,0.0,0.0
01/10/2023,04:33:52,0.001,0.0,0.0,0.0
01/10/2023,04:34:53,0.000,0.0,0.0,0.0
01/10/2023,04:35:52,0.000,0.0,0.0,0.0
01/10/2023,04:36:52,0.001,0.0,0.0,0.0
01/10/2023,04:37:53,0.001,0.0,0.0,0.0
01/10/2023,04:38:54,0.000,0.0,0.0,0.0
01/10/2023,04:39:52,0.000,0.0,0.0,0.0
01/10/2023,04:40:52,0.000,0.0,0.0,0.0
01/10/2023,04:41:52,0.001,0.0,0.0,0.0
01/10/2023,04:42:52,0.000,0.0,0.0,0.0
01/10/2023,04:43:52,0.001,0.0,0.0,0.0
01/10/2023,04:44:52,0.000,0.0,0.0,0.0
01/10/2023,04:45:53,0.000,0.0,0.0,0.0
01/10/2023,04:46:52,0.000,0.0,0.0,0.0
01/10/2023,04:47:53,0.000,0.0,0.0,0.0
01/10/2023,04:48:52,-0.001,0.0,0.0,0.0
01/10/2023,04:49:52,0.000,0.0,0.0,0.0
01/10/2023,04:50:52,0.000,0.0,0.0,0.0
01/10/2023,04:51:52,0.001,0.0,0.0,0.0
01/10/2023,04:52:52,0.000,0.0,0.0,0.0
01/10/2023,04:53:52,-0.001,0.0,0.0,0.0
01/10/2023,04:54:53,0.000,0.0,0.0,0.0
01/10/2023,04:55:53,0.000,0.0,0.0,0.0
01/10/2023,04:56:52,0.000,0.0,0.0,0.0
01/10/2023,04:57:53,0.001,0.0,0.0,0.0
01/10/2023,04:58:52,0.001,0.0,0.0,0.0
01/10/2023,04:59:52,-0.001,0.0,0.0,0.0
01/10/2023,05:00:52,0.001,0.0,0.0,0.0
01/10/2023,05:01:52,0.000,0.0,0.0,0.0
01/10/2023,05:02:53,0.000,0.0,0.0,0.0
01/10/2023,05:03:52,0.000,0.0,0.0,0.0
01/10/2023,05:04:53,0.000,0.0,0.0,0.0
01/10/2023,05:05:52,0.000,0.0,0.0,0.0
01/10/2023,05:06:53,0.001,0.0,0.0,0.0
01/10/2023,05:07:52,0.001,0.0,0.0,0.0
01/10/2023,05:08:53,0.000,0.0,0.0,0.0
01/10/2023,05:09:52,0.000,0.0,0.0,0.0
01/10/2023,05:10:53,0.000,0.0,0.0,0.0
01/10/2023,05:11:52,0.000,0.0,0.0,0.0
01/10/2023,05:12:52,0.001,0.0,0.0,0.0
01/10/2023,05:13:52,-0.000,0.0,0.0,0.0
01/10/2023,05:14:52,0.000,0.0,0.0,0.0
01/10/2023,05:15:52,0.000,0.0,0.0,0.0
01/10/2023,05:16:52,0.000,0.0,0.0,0.0
01/10/2023,05:17:53,0.000,0.0,0.0,0.0
01/10/2023,05:18:52,0.000,0.0,0.0,0.0
01/10/2023,05:19:52,-0.001,0.0,0.0,0.0
01/10/2023,05:20:52,0.000,0.0,0.0,0.0
01/10/2023,05:21:52,0.000,0.0,0.0,0.0
01/10/2023,05:22:53,0.000,0.0,0.0,0.0
01/10/2023,05:23:52,0.001,0.0,0.0,0.0
01/10/2023,05:24:52,-0.000,0.0,0.0,0.0
01/10/2023,05:25:52,0.000,0.0,0.0,0.0
01/10/2023,05:26:52,-0.002,0.0,0.0,0.0
01/10/2023,05:27:52,-0.001,0.0,0.0,0.0
01/10/2023,05:28:52,-0.001,0.0,0.0,0.0
01/10/2023,05:29:52,-0.000,0.0,0.0,0.0
01/10/2023,05:30:52,0.000,0.0,0.0,0.0
01/10/2023,05:31:53,0.001,0.0,0.0,0.0
01/10/2023,05:32:52,0.000,0.0,0.0,0.0
01/10/2023,05:33:53,-0.000,0.0,0.0,0.0
01/10/2023,05:34:52,0.001,0.0,0.0,0.0
01/10/2023,05:35:52,-0.001,0.0,0.0,0.0
01/10/2023,05:36:52,0.001,0.0,0.0,0.0
01/10/2023,05:37:52,-0.000,0.0,0.0,0.0
01/10/2023,05:38:53,0.001,0.0,0.0,0.0
01/10/2023,05:39:52,0.000,0.0,0.0,0.0
01/10/2023,05:40:52,0.000,0.0,0.0,0.0
01/10/2023,05:41:52,-0.001,0.0,0.0,0.0
01/10/2023,05:42:52,0.000,0.0,0.0,0.0
01/10/2023,05:43:52,-0.000,0.0,0.0,0.0
01/10/2023,05:44:52,0.000,0.0,0.0,0.0
01/10/2023,05:45:52,0.000,0.0,0.0,0.0
01/10/2023,05:46:52,0.000,0.0,0.0,0.0
01/10/2023,05:47:53,0.000,0.0,0.0,0.0
01/10/2023,05:48:52,0.001,0.0,0.0,0.0
01/10/2023,05:49:53,0.000,0.0,0.0,0.0
01/10/2023,05:50:52,0.000,0.0,0.0,0.0
01/10/2023,05:51:52,0.000,0.0,0.0,0.0
01/10/2023,05:52:53,0.000,0.0,0.0,0.0
01/10/2023,05:53:52,0.001,0.0,0.0,0.0
01/10/2023,05:54:53,0.001,0.0,0.0,0.0
01/10/2023,05:55:52,0.001,0.0,0.0,0.0
01/10/2023,05:56:52,0.000,0.0,0.0,0.0
01/10/2023,05:57:54,0.001,0.0,0.0,0.0
01/10/2023,05:58:52,0.001,0.0,0.0,0.0
01/10/2023,05:59:52,0.000,0.0,0.0,0.0
01/10/2023,06:00:52,0.000,0.0,0.0,0.0
01/10/2023,06:01:52,0.001,0.0,0.0,0.0
01/10/2023,06:02:52,0.001,0.0,0.0,0.0
01/10/2023,06:03:52,0.001,0.0,0.0,0.0
01/10/2023,06:04:52,0.001,0.0,0.0,0.0
01/10/2023,06:05:52,0.001,0.0,0.0,0.0
01/10/2023,06:06:52,0.001,0.0,0.0,0.0
01/10/2023,06:08:21,0.001,0.0,0.0,0.0
01/10/2023,06:09:52,0.001,0.0,0.0,0.0
01/10/2023,06:10:52,0.003,0.0,0.0,0.0
01/10/2023,06:11:52,0.002,0.0,0.0,0.0
01/10/2023,06:12:53,0.001,0.0,0.0,0.0
01/10/2023,06:13:52,0.002,0.0,0.0,0.0
01/10/2023,06:14:53,0.002,0.0,0.0,0.0
01/10/2023,06:15:53,0.002,0.0,0.0,0.0
01/10/2023,06:16:52,0.002,0.0,0.0,0.0
01/10/2023,06:17:53,0.002,0.0,0.0,0.0
01/10/2023,06:18:52,0.002,0.0,0.0,0.0
01/10/2023,06:19:52,0.002,0.0,0.0,0.0
01/10/2023,06:20:52,0.003,0.0,0.0,0.0
01/10/2023,06:21:52,0.002,0.0,0.0,0.0
01/10/2023,06:22:52,0.001,0.0,0.0,0.0
01/10/2023,06:23:52,0.003,0.0,0.0,0.0
01/10/2023,06:24:53,0.003,0.0,0.0,0.0
01/10/2023,06:25:52,0.004,0.0,0.0,0.0
01/10/2023,06:26:53,0.004,0.0,0.0,0.0
01/10/2023,06:27:52,0.004,0.0,0.0,0.0
01/10/2023,06:28:53,0.004,0.0,0.0,0.0
01/10/2023,06:29:52,0.005,0.0,0.0,0.0
01/10/2023,06:30:52,0.005,0.0,0.0,0.0
01/10/2023,06:31:53,0.005,0.0,0.0,0.0
01/10/2023,06:32:53,0.005,0.0,0.0,0.0
01/10/2023,06:33:52,0.005,0.0,0.0,0.0
01/10/2023,06:34:52,0.007,0.0,0.0,0.0
01/10/2023,06:35:52,0.006,0.0,0.0,0.0
01/10/2023,06:36:53,0.006,0.0,0.0,0.0
01/10/2023,06:37:53,0.007,0.0,0.0,0.0
01/10/2023,06:38:52,0.008,0.0,0.0,0.0
01/10/2023,06:39:53,0.007,0.0,0.0,0.0
01/10/2023,06:40:52,0.009,0.0,0.001,0.001
01/10/2023,06:41:53,0.008,0.0,0.001,0.0
01/10/2023,06:42:52,0.009,0.0,0.001,0.0
01/10/2023,06:44:14,0.009,0.0,0.001,0.0
01/10/2023,06:44:52,0.011,0.0,0.001,0.0
01/10/2023,06:45:52,0.012,0.0,0.001,0.0
01/10/2023,06:46:53,0.012,0.0,0.002,0.001
01/10/2023,06:47:52,0.011,0.0,0.002,0.0
01/10/2023,06:48:52,0.012,0.0,0.002,0.0
01/10/2023,06:49:53,0.013,0.0,0.002,0.0
01/10/2023,06:50:52,0.015,0.0,0.002,0.0
01/10/2023,06:51:52,0.015,0.0,0.003,0.001
01/10/2023,06:52:52,0.015,0.0,0.003,0.0
01/10/2023,06:53:52,0.015,0.0,0.003,0.0
01/10/2023,06:54:53,0.014,0.0,0.003,0.0
01/10/2023,06:55:52,0.015,0.0,0.004,0.001
01/10/2023,06:56:52,0.015,0.0,0.004,0.0
01/10/2023,06:57:53,0.014,0.0,0.004,0.0
01/10/2023,06:58:52,0.014,0.0,0.004,0.0
01/10/2023,06:59:53,0.017,0.0,0.005,0.001
01/10/2023,07:00:52,0.017,0.0,0.005,0.0
01/10/2023,07:01:53,0.020,0.0,0.005,0.0
01/10/2023,07:02:53,0.021,0.0,0.006,0.001
01/10/2023,07:03:52,0.022,0.0,0.006,0.0
01/10/2023,07:04:53,0.023,0.0,0.006,0.0
01/10/2023,07:05:53,0.024,0.0,0.007,0.001
01/10/2023,07:06:54,0.024,0.0,0.007,0.0
01/10/2023,07:07:53,0.025,0.0,0.007,0.0
01/10/2023,07:08:53,0.022,0.0,0.008,0.001
01/10/2023,07:09:52,0.025,0.0,0.008,0.0
01/10/2023,07:10:54,0.027,0.0,0.009,0.001
01/10/2023,07:11:52,0.027,0.0,0.009,0.0
01/10/2023,07:12:53,0.029,0.0,0.01,0.001
01/10/2023,07:13:52,0.030,0.0,0.01,0.0
01/10/2023,07:14:53,0.032,0.0,0.011,0.001
01/10/2023,07:15:52,0.033,0.0,0.011,0.0
01/10/2023,07:16:52,0.035,0.0,0.012,0.001
01/10/2023,07:17:53,0.037,0.0,0.012,0.0
01/10/2023,07:18:53,0.039,0.0,0.013,0.001
01/10/2023,07:19:52,0.043,0.0,0.014,0.001
01/10/2023,07:20:53,0.042,0.0,0.014,0.0
01/10/2023,07:21:53,0.042,0.0,0.015,0.001
01/10/2023,07:22:52,0.044,0.0,0.016,0.001
01/10/2023,07:23:53,0.041,0.0,0.017,0.001
01/10/2023,07:24:52,0.041,0.0,0.017,0.0
01/10/2023,07:25:52,0.043,0.0,0.018,0.001
01/10/2023,07:26:52,0.044,0.0,0.019,0.001
01/10/2023,07:27:52,0.052,0.0,0.019,0.0
01/10/2023,07:28:52,0.049,0.0,0.02,0.001
01/10/2023,07:29:53,0.047,0.0,0.021,0.001
01/10/2023,07:30:53,0.053,0.0,0.022,0.001
01/10/2023,07:31:53,0.058,0.0,0.023,0.001
01/10/2023,07:32:53,0.062,0.0,0.024,0.001
01/10/2023,07:33:52,0.062,0.0,0.025,0.001
01/10/2023,07:34:53,0.061,0.0,0.026,0.001
01/10/2023,07:35:52,0.068,0.0,0.027,0.001
01/10/2023,07:36:52,0.070,0.0,0.028,0.001
01/10/2023,07:37:53,0.070,0.0,0.029,0.001
01/10/2023,07:38:52,0.073,0.0,0.03,0.001
01/10/2023,07:39:53,0.081,0.0,0.032,0.002
01/10/2023,07:40:52,0.085,0.0,0.033,0.001
01/10/2023,07:41:52,0.088,0.0,0.035,0.002
01/10/2023,07:42:53,0.093,0.0,0.036,0.001
01/10/2023,07:43:52,0.089,0.0,0.038,0.002
01/10/2023,07:44:53,0.085,0.0,0.039,0.001
01/10/2023,07:45:53,0.074,0.0,0.04,0.001
01/10/2023,07:46:52,0.068,0.0,0.042,0.002
01/10/2023,07:47:52,0.073,0.0,0.043,0.001
01/10/2023,07:48:52,0.067,0.0,0.044,0.001
01/10/2023,07:49:52,0.065,0.0,0.045,0.001
01/10/2023,07:50:52,0.060,0.0,0.046,0.001
01/10/2023,07:51:53,0.065,0.0,0.047,0.001
01/10/2023,07:52:52,0.068,0.0,0.048,0.001
01/10/2023,07:53:53,0.057,0.0,0.049,0.001
01/10/2023,07:54:52,0.057,0.0,0.05,0.001
01/10/2023,07:55:52,0.059,0.0,0.051,0.001
01/10/2023,07:56:52,0.069,0.0,0.052,0.001
01/10/2023,07:57:53,0.096,0.0,0.054,0.002
01/10/2023,07:58:53,0.112,0.0,0.055,0.001
01/10/2023,07:59:52,0.117,0.0,0.057,0.002
01/10/2023,08:00:53,0.128,0.0,0.059,0.002
01/10/2023,08:01:52,0.115,0.0,0.061,0.002
01/10/2023,08:02:53,0.114,0.0,0.063,0.002
01/10/2023,08:03:52,0.114,0.0,0.065,0.002
01/10/2023,08:04:53,0.110,0.0,0.067,0.002
01/10/2023,08:05:53,0.107,0.0,0.069,0.002
01/10/2023,08:06:52,0.124,0.0,0.071,0.002
01/10/2023,08:07:53,0.131,0.0,0.073,0.002
01/10/2023,08:08:53,0.144,0.0,0.075,0.002
01/10/2023,08:09:53,0.140,0.0,0.078,0.003
01/10/2023,08:10:52,0.146,0.0,0.08,0.002
01/10/2023,08:11:52,0.156,0.0,0.082,0.002
01/10/2023,08:12:53,0.121,0.0,0.085,0.003
01/10/2023,08:13:52,0.109,0.0,0.087,0.002
01/10/2023,08:14:54,0.100,0.0,0.088,0.001
01/10/2023,08:15:53,0.092,0.0,0.09,0.002
01/10/2023,08:16:52,0.091,0.0,0.092,0.002
01/10/2023,08:17:52,0.078,0.0,0.093,0.001
01/10/2023,08:18:52,0.078,0.0,0.094,0.001
01/10/2023,08:19:53,0.070,0.0,0.095,0.001
01/10/2023,08:20:52,0.058,0.0,0.097,0.002
01/10/2023,08:21:53,0.061,0.0,0.098,0.001
01/10/2023,08:22:52,0.060,0.0,0.099,0.001
01/10/2023,08:23:53,0.059,0.0,0.1,0.001
01/10/2023,08:24:53,0.057,0.0,0.1,0.0
01/10/2023,08:25:52,0.059,0.0,0.101,0.001
01/10/2023,08:26:53,0.066,0.0,0.103,0.002
01/10/2023,08:27:52,0.066,0.0,0.104,0.001
01/10/2023,08:28:52,0.061,0.0,0.105,0.001
01/10/2023,08:29:52,0.074,0.0,0.106,0.001
01/10/2023,08:30:53,0.085,0.0,0.107,0.001
01/10/2023,08:31:52,0.084,0.0,0.109,0.002
01/10/2023,08:32:53,0.082,0.0,0.11,0.001
01/10/2023,08:33:52,0.086,0.0,0.111,0.001
01/10/2023,08:34:52,0.079,0.0,0.113,0.002
01/10/2023,08:35:53,0.079,0.0,0.114,0.001
01/10/2023,08:36:53,0.093,0.0,0.115,0.001
01/10/2023,08:37:53,0.092,0.0,0.117,0.002
01/10/2023,08:38:52,0.080,0.0,0.118,0.001
01/10/2023,08:39:53,0.094,0.0,0.12,0.002
01/10/2023,08:40:53,0.096,0.0,0.121,0.001
01/10/2023,08:41:53,0.098,0.0,0.123,0.002
01/10/2023,08:42:52,0.116,0.0,0.125,0.002
01/10/2023,08:43:53,0.142,0.0,0.127,0.002
01/10/2023,08:44:52,0.152,0.0,0.129,0.002
01/10/2023,08:45:53,0.154,0.0,0.132,0.003
01/10/2023,08:46:52,0.165,0.0,0.135,0.003
01/10/2023,08:47:53,0.154,0.0,0.137,0.002
01/10/2023,08:48:52,0.140,0.0,0.14,0.003
01/10/2023,08:49:53,0.128,0.0,0.142,0.002
01/10/2023,08:50:52,0.125,0.0,0.144,0.002
01/10/2023,08:51:53,0.132,0.0,0.146,0.002
01/10/2023,08:52:52,0.136,0.0,0.148,0.002
01/10/2023,08:53:53,0.132,0.0,0.151,0.003
01/10/2023,08:54:53,0.136,0.0,0.153,0.002
01/10/2023,08:55:52,0.131,0.0,0.155,0.002
01/10/2023,08:56:53,0.120,0.0,0.157,0.002
01/10/2023,08:57:52,0.127,0.0,0.159,0.002
01/10/2023,08:58:53,0.127,0.0,0.162,0.003
01/10/2023,08:59:53,0.137,0.0,0.164,0.002
01/10/2023,09:00:54,0.153,0.0,0.166,0.002
01/10/2023,09:01:52,0.163,0.0,0.169,0.003
01/10/2023,09:02:53,0.179,0.0,0.172,0.003
01/10/2023,09:03:53,0.181,0.0,0.175,0.003
01/10/2023,09:04:52,0.178,0.0,0.178,0.003
01/10/2023,09:05:53,0.168,0.0,0.181,0.003
01/10/2023,09:06:52,0.146,0.0,0.183,0.002
01/10/2023,09:07:53,0.150,0.0,0.186,0.003
01/10/2023,09:08:52,0.158,0.0,0.188,0.002
01/10/2023,09:09:53,0.165,0.0,0.191,0.003
01/10/2023,09:10:52,0.165,0.0,0.194,0.003
01/10/2023,09:11:53,0.165,0.0,0.196,0.002
01/10/2023,09:12:53,0.159,0.0,0.199,0.003
01/10/2023,09:13:52,0.156,0.0,0.202,0.003
01/10/2023,09:14:53,0.174,0.0,0.204,0.002
01/10/2023,09:15:53,0.192,0.0,0.208,0.004
01/10/2023,09:16:52,0.202,0.0,0.211,0.003
01/10/2023,09:17:53,0.202,0.0,0.214,0.003
01/10/2023,09:18:52,0.210,0.0,0.218,0.004
01/10/2023,09:19:53,0.211,0.0,0.221,0.003
01/10/2023,09:20:52,0.232,1.0,0.225,0.004
01/10/2023,09:21:53,0.234,1.0,0.229,0.004
01/10/2023,09:22:52,0.234,1.0,0.233,0.004
01/10/2023,09:23:53,0.230,1.0,0.236,0.003
01/10/2023,09:24:52,0.257,1.0,0.24,0.004
01/10/2023,09:25:53,0.278,1.0,0.245,0.005
01/10/2023,09:26:53,0.306,1.0,0.25,0.005
01/10/2023,09:27:52,0.316,1.0,0.255,0.005
01/10/2023,09:28:53,0.317,1.0,0.26,0.005
01/10/2023,09:29:52,0.321,1.0,0.266,0.006
01/10/2023,09:30:53,0.319,1.0,0.271,0.005
01/10/2023,09:31:52,0.345,1.0,0.276,0.005
01/10/2023,09:32:53,0.371,1.0,0.282,0.006
01/10/2023,09:33:52,0.377,1.0,0.289,0.007
01/10/2023,09:34:53,0.375,1.0,0.295,0.006
01/10/2023,09:35:52,0.399,1.0,0.301,0.006
01/10/2023,09:36:53,0.427,1.0,0.308,0.007
01/10/2023,09:37:53,0.478,1.0,0.316,0.008
01/10/2023,09:38:53,0.523,1.0,0.324,0.008
01/10/2023,09:39:53,0.496,1.0,0.333,0.009
01/10/2023,09:40:53,0.486,1.0,0.341,0.008
01/10/2023,09:41:53,0.466,1.0,0.349,0.008
01/10/2023,09:42:53,0.492,1.0,0.357,0.008
01/10/2023,09:43:53,0.488,1.0,0.365,0.008
01/10/2023,09:44:53,0.486,1.0,0.373,0.008
01/10/2023,09:45:53,0.495,1.0,0.381,0.008
01/10/2023,09:46:52,0.429,1.0,0.389,0.008
01/10/2023,09:47:53,0.389,1.0,0.396,0.007
01/10/2023,09:48:52,0.362,1.0,0.402,0.006
01/10/2023,09:49:52,0.359,1.0,0.408,0.006
01/10/2023,09:50:53,0.396,1.0,0.414,0.006
01/10/2023,09:51:53,0.424,1.0,0.421,0.007
01/10/2023,09:52:53,0.437,1.0,0.429,0.008
01/10/2023,09:53:52,0.448,1.0,0.436,0.007
01/10/2023,09:54:53,0.513,1.0,0.444,0.008
01/10/2023,09:55:52,0.458,1.0,0.452,0.008
01/10/2023,09:56:53,0.419,1.0,0.459,0.007
01/10/2023,09:57:57,0.441,1.0,0.467,0.008
01/10/2023,09:58:53,0.473,1.0,0.474,0.007
01/10/2023,09:59:52,0.480,1.0,0.481,0.007
01/10/2023,10:00:53,0.467,1.0,0.49,0.009
01/10/2023,10:01:52,0.396,1.0,0.497,0.007
01/10/2023,10:02:54,0.377,1.0,0.503,0.006
01/10/2023,10:03:53,0.407,1.0,0.51,0.007
01/10/2023,10:04:52,0.450,1.0,0.517,0.007
01/10/2023,10:05:53,0.435,1.0,0.524,0.007
01/10/2023,10:06:52,0.427,1.0,0.531,0.007
01/10/2023,10:07:53,0.374,1.0,0.538,0.007